COSMOS 2251 DEB, 35446

Orbit data source: Space-Track

COSMOS 2251 DEB, 35446 is space debris in LEO originally from a launch on Wed, 16 Jun 1993 UTC launched from the Plesetsk Missile And Space Complex (PKMTR). The debris from Iridium 33, an American commercial communications satellite, has been tracked extensively since its accidental collision with the defunct Russian satellite Cosmos 2251 in 2009. This event, occurring at high speed in low Earth orbit (LEO), generated thousands of pieces of space debris, significantly increasing the risk of further collisions. The Iridium 33 debris cloud has impacted space traffic management and orbital debris mitigation strategies, making it a subject of ongoing study in space situational awareness.

Loading next visibility...
Identifier
35446, 1993-036AKQ
Orbit
LEO
Country
Flag of CISCIS
Related business
Manufacturer
Unknown
Mission
Spacecraft
Bus & Motor
Unknown
Mass
Unknown
Launch date (UTC)
1993-06-16 (32 years ago)
Launch vehicle
Unknown
Launch site
Plesetsk Missile And Space Complex (PKMTR)
Object type
Payload
Rocket body
Debris
Shape & HBR
Unknown shape, 0.1 m
Radar Cross Section
Small (<0.1 m²)

Expand to show TLE details & history
Last TLE update: 2 days ago

TLE from 2 days ago
0 COSMOS 2251 DEB
1 35446U 93036AKQ 25301.69930591  .00000847  00000-0  19794-3 0  9998
2 35446  74.0482  43.3369 0075701 174.2072 185.9986 14.54561896873531
Epoch: 2025-10-28T16:47Z
TLE epoch observation values (Epoch: 2025-10-28T16:47:00.030Z)
Latitude
0.00002°
Longitude
114.30373°
Altitude
766.806 km
Speed
7.443 km/s
True Right ascension
02h 53m 20s
True Declination
0° 00' 00"
Sunlit
Object was in full shadow at epoch
Visualization orbit readout
Latitude
Unknown
Longitude
Unknown
Altitude
Unknown
Speed
Unknown
Apparent Right ascension
Unknown
Apparent Declination
Unknown
Sunlit
N/A
Visualization observer readout
Local Sidereal Time
04:47:42
Azimuth
Unknown
Elevation
Unknown
Doppler factor
Unknown
Orbital elements
Apogee altitude
762.036 km
Perigee altitude
654.744 km
Semi-major axis
7,086.527 km
Eccentricity
0.00757
Inclination
74.0482°
RAAN
43.3369°
Arg. of periapsis
174.2072°
True anomaly
185.90879°
Mean anomaly
185.9986°
Eccentric anomaly
185.95361°
Mean motion
3.63825 °/min
Orbital period
98.95 mins
BSTAR
0.00019794

Documentation

Showing up to 5 results
|